CDT,Max TemperatureF,Mean TemperatureF,Min TemperatureF,Max Dew PointF,MeanDew PointF,Min DewpointF,Max Humidity, Mean Humidity, Min Humidity, Max Sea Level PressureIn, Mean Sea Level PressureIn, Min Sea Level PressureIn, Max VisibilityMiles, Mean VisibilityMiles, Min VisibilityMiles, Max Wind SpeedMPH, Mean Wind SpeedMPH, Max Gust SpeedMPH,PrecipitationIn, CloudCover, Events, WindDirDegrees
2012-9-1,72,72,71,70,70,69,96,94,93,29.81,29.77,29.74,4,2,2,24,17,38,1.85,8,Rain,4
2012-9-2,90,82,75,68,66,65,79,57,45,29.96,29.90,29.87,10,10,10,7,6,,0.00,0,,46
2012-9-3,96,82,70,70,68,64,93,67,38,29.97,29.88,29.82,10,10,7,26,6,38,0.02,0,Rain,120
2012-9-4,93,83,73,70,69,67,87,66,42,29.90,29.84,29.76,10,10,10,20,10,24,0.04,1,,155
2012-9-5,93,83,73,68,65,61,82,55,34,29.88,29.81,29.76,10,10,10,9,4,,0.00,0,,329
2012-9-6,90,79,69,67,61,56,70,54,39,29.97,29.90,29.82,10,10,10,13,7,21,0.00,1,,87
2012-9-7,86,72,61,67,62,54,88,74,51,30.04,29.89,29.78,10,9,1,26,14,43,0.54,3,Rain-Thunderstorm,321
2012-9-8,77,64,53,54,47,45,80,56,33,30.16,30.08,30.01,10,10,10,15,8,20,0.00,0,,301
2012-9-9,75,65,55,50,47,45,67,52,37,30.19,30.12,29.99,10,10,10,10,7,16,0.00,0,,14
2012-9-10,79,68,57,52,50,48,72,53,36,30.19,30.11,30.03,10,10,10,13,6,18,0.00,0,,160
2012-9-11,88,74,60,57,54,51,78,53,29,30.06,30.01,29.97,10,10,10,15,10,23,0.00,0,,180
2012-9-12,86,75,64,59,57,56,75,55,40,30.07,30.02,29.99,10,10,10,16,10,24,0.00,0,,166
2012-9-13,73,64,54,57,52,44,94,82,52,30.39,30.28,30.07,10,8,2,18,12,26,0.48,8,Rain,28
2012-9-14,70,62,53,52,50,45,94,77,41,30.40,30.35,30.30,10,10,8,13,8,,0.05,4,Rain,50
2012-9-15,72,62,53,59,54,47,88,73,57,30.30,30.21,30.13,10,10,10,10,6,16,0.00,5,,105
2012-9-16,73,66,60,61,59,55,93,78,64,30.12,30.05,29.96,10,10,10,7,3,,0.00,6,,180
2012-9-17,79,66,53,64,59,49,97,83,48,30.03,29.93,29.85,10,9,2,24,4,34,0.14,5,Rain-Thunderstorm,319
2012-9-18,66,57,48,48,40,33,93,57,30,30.13,30.07,30.02,10,10,9,14,4,18,0.00,0,,328
2012-9-19,80,68,55,52,47,39,62,49,35,30.03,29.96,29.86,10,10,10,22,12,32,0.00,0,,202
2012-9-20,77,65,55,53,42,35,65,42,23,30.06,30.01,29.96,10,9,0,13,4,,0.00,1,,20
2012-9-21,81,68,57,55,40,34,67,39,20,29.96,29.88,29.82,10,10,10,18,8,29,0.00,0,,246
2012-9-22,66,58,48,41,33,25,64,42,21,30.29,30.15,29.95,10,10,10,17,7,23,0.00,0,,335
2012-9-23,68,54,39,41,35,32,86,47,28,30.36,30.28,30.23,10,10,10,7,4,,0.00,0,,105
2012-9-24,77,64,52,58,47,35,70,55,47,30.23,30.02,29.82,10,10,10,13,6,18,0.00,0,,139
2012-9-25,82,73,66,64,60,58,88,66,48,29.93,29.82,29.75,10,10,3,15,8,24,0.21,3,Rain-Thunderstorm,215
2012-9-26,75,68,62,63,62,59,97,83,57,30.10,30.00,29.86,10,10,5,17,6,25,0.19,5,Rain,286
2012-9-27,72,67,62,63,57,51,97,76,53,30.17,30.13,30.10,10,9,4,7,4,,0.02,7,Rain,52
2012-9-28,72,66,57,59,54,46,94,74,44,30.18,30.14,30.10,10,8,2,12,6,,0.00,4,,60
2012-9-29,73,62,50,49,46,43,86,60,35,30.18,30.11,30.04,10,10,8,8,3,,0.00,0,,58
2012-9-30,75,64,52,57,50,47,89,65,41,30.03,29.95,29.88,10,9,3,6,1,,0.00,0,,317